Simultaneous Nadir Overpasses (SNOs) Predictions

Prediction of SNOs between METOP-B and TERRA Satellite Orbit:

Table of predicted SNOs for the next 14.0 days since TLE Epoch: 6/21/2014
Index Date (METOP-B) Time (METOP-B) Lat,Lon (METOP-B) SZA (METOP-B ) Date (TERRA) Time (TERRA) Lat,Lon (TERRA) SZA (TERRA ) Distance(km) Time Diff (sec)
1 06/23/2014 03:54:04 81.33, 169.48 60.86 06/23/2014 03:54:26 81.33, 169.29 60.85 3.24 22
2 06/23/2014 04:44:44 -81.33, -23.19 119.15 06/23/2014 04:43:53 -81.33, -23.15 119.17 0.66 51
3 06/25/2014 23:28:25 81.33,-124.29 60.88 06/25/2014 23:28:39 81.34,-124.22 60.90 1.40 14
4 06/26/2014 00:19:04 -81.33, 43.48 119.07 06/26/2014 00:18:06 -81.33, 43.38 119.11 1.63 58
5 06/28/2014 19:02:44 81.33, -57.69 61.00 06/28/2014 19:02:51 81.33, -57.84 60.98 2.61 7
6 06/
